This is the latest recevied weather packets stored in our database for station/object KJ5IIV. If no packets are shown the sender has not sent any weather packets the latest 10 day(s).
| Time | Temp. | Humidity | Pressure | Rain* | Wind** | Luminosity | Snow |
|---|---|---|---|---|---|---|---|
| 1777746119 | 23.33° C | 40% | 1020.8 hPa | 0 mm | - | 853 W/m² | - |
| 1777745817 | 23.33° C | 36% | 1020.8 hPa | 0 mm | - | 854 W/m² | - |
| 1777745516 | 22.78° C | 38% | 1020.9 hPa | 0 mm | - | 853 W/m² | - |
| 1777745213 | 22.78° C | 42% | 1020.9 hPa | 0 mm | - | 859 W/m² | - |
| 1777744910 | 23.33° C | 40% | 1021 hPa | 0 mm | - | 837 W/m² | - |
| 1777744609 | 22.78° C | 41% | 1021 hPa | 0 mm | - | 780 W/m² | - |
| 1777744305 | 22.78° C | 43% | 1021.2 hPa | 0 mm | - | 781 W/m² | - |
| 1777744002 | 23.33° C | 42% | 1021.3 hPa | 0 mm | - | 781 W/m² | - |
| 1777743698 | 22.78° C | 41% | 1021 hPa | 0 mm | - | 788 W/m² | - |
| 1777743396 | 22.22° C | 47% | 1021.2 hPa | 0 mm | - | 776 W/m² | - |
| 1777743094 | 22.22° C | 41% | 1021.2 hPa | 0 mm | - | 769 W/m² | - |
| 1777742791 | 22.78° C | 41% | 1021.2 hPa | 0 mm | - | 756 W/m² | - |
| 1777742487 | 22.22° C | 44% | 1021.4 hPa | 0 mm | - | 751 W/m² | - |
| 1777742183 | 21.67° C | 43% | 1021.5 hPa | 0 mm | - | 750 W/m² | - |
| 1777741880 | 21.67° C | 43% | 1021.3 hPa | 0 mm | - | 747 W/m² | - |
| 1777741577 | 22.22° C | 44% | 1021.4 hPa | 0 mm | - | 750 W/m² | - |
| 1777741274 | 22.22° C | 46% | 1021.4 hPa | 0 mm | - | 743 W/m² | - |
| 1777740970 | 22.22° C | 45% | 1021.5 hPa | 0 mm | - | 737 W/m² | - |
| 1777740668 | 21.67° C | 48% | 1021.3 hPa | 0 mm | - | 728 W/m² | - |
| 1777740363 | 22.22° C | 48% | 1021.3 hPa | 0 mm | - | 731 W/m² | - |
| 1777740061 | 21.67° C | 47% | 1021.4 hPa | 0 mm | - | 731 W/m² | - |
| 1777739756 | 21.67° C | 47% | 1021.3 hPa | 0 mm | - | 726 W/m² | - |
| 1777739453 | 21.11° C | 51% | 1021.2 hPa | 0 mm | - | 724 W/m² | - |
| 1777739150 | 21.67° C | 50% | 1021.2 hPa | 0 mm | - | 725 W/m² | - |
| 1777738847 | 21.67° C | 55% | 1021.6 hPa | 0 mm | - | 725 W/m² | - |
* Rain latest hour (hover to see other rain measurements)
** Current wind speed in m/s (hover to see current wind gust speed)